| time (UTC) | temp F | wind direction | speed knots | gust knots | rain 1hr in | rain 24hr in | rain mn in | humidity % | barometer mb |
| 20260502213008 | 66 | 306 | 5.2 | 12.2 | 0.00 | 0.00 | 0.00 | 33 | 1012.0 |
| 20260502212503 | 66 | 278 | 1.7 | 7.8 | 0.00 | 0.00 | 0.00 | 36 | 1012.0 |
| 20260502212002 | 66 | 302 | 2.6 | 6.1 | 0.00 | 0.00 | 0.00 | 34 | 1012.1 |
| 20260502211524 | 66 | 295 | 2.6 | 7.0 | 0.00 | 0.00 | 0.00 | 34 | 1012.2 |
| 20260502211007 | 66 | 301 | 1.7 | 10.4 | 0.00 | 0.00 | 0.00 | 34 | 1012.3 |
| 20260502210507 | 65 | 288 | 3.5 | 10.4 | 0.00 | 0.00 | 0.00 | 36 | 1012.4 |
| 20260502210028 | 65 | 281 | 2.6 | 7.8 | 0.00 | 0.00 | 0.00 | 36 | 1012.4 |
| 20260502205509 | 65 | 277 | 3.5 | 7.8 | 0.00 | 0.00 | 0.00 | 36 | 1012.5 |
| 20260502205006 | 65 | 266 | 3.5 | 7.8 | 0.00 | 0.00 | 0.00 | 35 | 1012.6 |
| 20260502204522 | 64 | 225 | 2.6 | 7.8 | 0.00 | 0.00 | 0.00 | 35 | 1012.7 |
| 20260502204008 | 64 | 255 | 1.7 | 7.8 | 0.00 | 0.00 | 0.00 | 34 | 1012.9 |
| 20260502203502 | 64 | 335 | 1.7 | 7.8 | 0.00 | 0.00 | 0.00 | 36 | 1013.0 |
| 20260502203008 | 64 | 281 | 3.5 | 9.6 | 0.00 | 0.00 | 0.00 | 38 | 1013.1 |
| 20260502202503 | 64 | 290 | 3.5 | 11.3 | 0.00 | 0.00 | 0.00 | 37 | 1013.2 |
| 20260502202009 | 64 | 281 | 3.5 | 11.3 | 0.00 | 0.00 | 0.00 | 35 | 1013.3 |
| 20260502201517 | 64 | 327 | 2.6 | 10.4 | 0.00 | 0.00 | 0.00 | 37 | 1013.5 |
| 20260502201010 | 64 | 231 | 1.7 | 10.4 | 0.00 | 0.00 | 0.00 | 33 | 1013.5 |
| 20260502200506 | 63 | 291 | 3.5 | 10.4 | 0.00 | 0.00 | 0.00 | 36 | 1013.6 |
| 20260502200019 | 63 | 248 | 1.7 | 6.1 | 0.00 | 0.00 | 0.00 | 35 | 1013.7 |
| 20260502195509 | 62 | 295 | 1.7 | 9.6 | 0.00 | 0.00 | 0.00 | 36 | 1013.9 |
| 20260502195006 | 63 | 303 | 4.3 | 9.6 | 0.00 | 0.00 | 0.00 | 39 | 1014.0 |
| 20260502194521 | 63 | 258 | 1.7 | 7.8 | 0.00 | 0.00 | 0.00 | 35 | 1014.0 |
| 20260502194005 | 62 | 207 | 1.7 | 13.0 | 0.00 | 0.00 | 0.00 | 36 | 1014.1 |
| 20260502193512 | 62 | 242 | 4.3 | 13.0 | 0.00 | 0.00 | 0.00 | 36 | 1014.1 |
| 20260502193025 | 62 | 274 | 2.6 | 7.8 | 0.00 | 0.00 | 0.00 | 34 | 1014.3 |
| 20260502192508 | 62 | 296 | 1.7 | 5.2 | 0.00 | 0.00 | 0.00 | 38 | 1014.4 |
| 20260502192010 | 61 | 321 | 1.7 | 5.2 | 0.00 | 0.00 | 0.00 | 35 | 1014.4 |
| 20260502191531 | 61 | 316 | 2.6 | 11.3 | 0.00 | 0.00 | 0.00 | 35 | 1014.5 |
| 20260502191003 | 61 | 276 | 3.5 | 11.3 | 0.00 | 0.00 | 0.00 | 41 | 1014.7 |
| 20260502190507 | 61 | 326 | 4.3 | 9.6 | 0.00 | 0.00 | 0.00 | 42 | 1014.7 |
| 20260502190022 | 61 | 285 | 4.3 | 8.7 | 0.00 | 0.00 | 0.00 | 37 | 1014.9 |
| 20260502185508 | 60 | 307 | 1.7 | 5.2 | 0.00 | 0.00 | 0.00 | 37 | 1015.0 |
| 20260502185009 | 60 | 290 | 2.6 | 8.7 | 0.00 | 0.00 | 0.00 | 38 | 1015.0 |
| 20260502184521 | 60 | 290 | 2.6 | 8.7 | 0.00 | 0.00 | 0.00 | 38 | 1015.1 |
| 20260502184014 | 60 | 286 | 4.3 | 7.8 | 0.00 | 0.00 | 0.00 | 39 | 1015.3 |
| 20260502183507 | 60 | 276 | 1.7 | 7.0 | 0.00 | 0.00 | 0.00 | 35 | 1015.3 |
| 20260502183024 | 60 | 304 | 2.6 | 10.4 | 0.00 | 0.00 | 0.00 | 39 | 1015.4 |
| 20260502182510 | 59 | 349 | 1.7 | 10.4 | 0.00 | 0.00 | 0.00 | 38 | 1015.6 |
| 20260502182013 | 59 | 299 | 1.7 | 6.1 | 0.00 | 0.00 | 0.00 | 35 | 1015.5 |
| 20260502181528 | 59 | 287 | 2.6 | 7.8 | 0.00 | 0.00 | 0.00 | 38 | 1015.7 |
| 20260502181010 | 58 | 311 | 3.5 | 9.6 | 0.00 | 0.00 | 0.00 | 40 | 1015.9 |
| 20260502180509 | 59 | 316 | 4.3 | 9.6 | 0.00 | 0.00 | 0.00 | 40 | 1015.8 |
| 20260502170509 | 56 | 307 | 3.5 | 8.7 | 0.00 | 0.00 | 0.00 | 41 | 1016.8 |
| 20260502164008 | 55 | 280 | 1.7 | 6.1 | 0.00 | 0.00 | 0.00 | 41 | 1017.0 |
| 20260502163507 | 55 | 299 | 2.6 | 6.1 | 0.00 | 0.00 | 0.00 | 41 | 1017.2 |
| 20260502163034 | 55 | 304 | 0.9 | 7.8 | 0.00 | 0.00 | 0.00 | 43 | 1017.3 |
| 20260502162510 | 55 | 269 | 3.5 | 7.8 | 0.00 | 0.00 | 0.00 | 43 | 1017.3 |
| 20260502162011 | 55 | 142 | 1.7 | 6.1 | 0.00 | 0.00 | 0.00 | 45 | 1017.4 |
| 20260502161525 | 54 | 302 | 1.7 | 7.8 | 0.00 | 0.00 | 0.00 | 44 | 1017.5 |
| 20260502161006 | 54 | 283 | 1.7 | 7.8 | 0.00 | 0.00 | 0.00 | 44 | 1017.5 |
| 20260502160511 | 54 | 338 | 4.3 | 10.4 | 0.00 | 0.00 | 0.00 | 44 | 1017.6 |
| 20260502152007 | 52 | 290 | 5.2 | 9.6 | 0.00 | 0.00 | 0.00 | 49 | 1018.0 |
| 20260502151528 | 52 | 333 | 3.5 | 7.8 | 0.00 | 0.00 | 0.00 | 51 | 1018.0 |
| 20260502151008 | 52 | 271 | 3.5 | 10.4 | 0.00 | 0.00 | 0.00 | 50 | 1018.0 |
| 20260502150509 | 51 | 311 | 4.3 | 10.4 | 0.00 | 0.00 | 0.00 | 52 | 1018.2 |
| 20260502130507 | 43 | 228 | 0.9 | 3.5 | 0.00 | 0.00 | 0.00 | 65 | 1018.6 |
| 20260502123512 | 41 | 258 | 0.0 | 3.5 | 0.00 | 0.00 | 0.00 | 66 | 1018.6 |
| 20260502123030 | 40 | 228 | 0.0 | 3.5 | 0.00 | 0.00 | 0.00 | 66 | 1018.5 |
| 20260502122510 | 40 | 262 | 0.9 | 4.3 | 0.00 | 0.00 | 0.00 | 66 | 1018.5 |
| 20260502122010 | 40 | 262 | 0.0 | 4.3 | 0.00 | 0.00 | 0.00 | 66 | 1018.7 |
| 20260502121527 | 39 | 200 | 0.0 | 2.6 | 0.00 | 0.00 | 0.00 | 66 | 1018.6 |
| 20260502121010 | 39 | 276 | 0.0 | 2.6 | 0.00 | 0.00 | 0.00 | 67 | 1018.6 |
| 20260502120506 | 39 | 241 | 0.0 | 3.5 | 0.00 | 0.00 | 0.00 | 67 | 1018.6 |
| 20260502115505 | 38 | 272 | 0.0 | 2.6 | 0.00 | 0.00 | 0.00 | 69 | 1018.5 |
| 20260502115011 | 37 | 255 | 0.0 | 2.6 | 0.00 | 0.00 | 0.00 | 69 | 1018.5 |
| 20260502114531 | 37 | 254 | 0.0 | 3.5 | 0.00 | 0.00 | 0.00 | 69 | 1018.3 |
| 20260502114007 | 37 | 239 | 0.0 | 3.5 | 0.00 | 0.00 | 0.00 | 69 | 1018.4 |
| 20260502113507 | 37 | 187 | 0.0 | 3.5 | 0.00 | 0.00 | 0.00 | 69 | 1018.5 |
| 20260502113029 | 36 | 221 | 0.0 | 1.7 | 0.00 | 0.00 | 0.00 | 69 | 1018.5 |
| 20260502112509 | 36 | 221 | 0.0 | 1.7 | 0.00 | 0.00 | 0.00 | 69 | 1018.5 |
| 20260502112010 | 36 | 233 | 0.0 | 1.7 | 0.00 | 0.00 | 0.00 | 69 | 1018.4 |
| 20260502111526 | 36 | 217 | 0.0 | 1.7 | 0.00 | 0.00 | 0.00 | 69 | 1018.3 |
| 20260502111010 | 36 | 248 | 0.0 | 2.6 | 0.00 | 0.00 | 0.00 | 69 | 1018.3 |
| 20260502110510 | 36 | 232 | 0.0 | 2.6 | 0.00 | 0.00 | 0.00 | 69 | 1018.3 |
| 20260502110026 | 37 | 233 | 0.0 | 2.6 | 0.00 | 0.00 | 0.00 | 68 | 1018.2 |
| 20260502105507 | 37 | 229 | 0.0 | 2.6 | 0.00 | 0.00 | 0.00 | 68 | 1018.2 |
| 20260502105002 | 37 | 233 | 0.0 | 2.6 | 0.00 | 0.00 | 0.00 | 68 | 1018.2 |
| 20260502104511 | 37 | 228 | 0.0 | 2.6 | 0.00 | 0.00 | 0.00 | 68 | 1018.2 |
| 20260502104002 | 37 | 255 | 0.0 | 1.7 | 0.00 | 0.00 | 0.00 | 67 | 1018.2 |
| 20260502103507 | 37 | 252 | 0.0 | 1.7 | 0.00 | 0.00 | 0.00 | 67 | 1018.2 |
| 20260502103004 | 37 | 258 | 0.0 | 1.7 | 0.00 | 0.00 | 0.00 | 67 | 1018.2 |
| 20260502102504 | 37 | 267 | 0.0 | 1.7 | 0.00 | 0.00 | 0.00 | 66 | 1018.1 |
| 20260502102004 | 37 | 220 | 0.0 | 2.6 | 0.00 | 0.00 | 0.00 | 66 | 1018.2 |
| 20260502101508 | 37 | 248 | 0.0 | 2.6 | 0.00 | 0.00 | 0.00 | 66 | 1018.1 |
| 20260502101002 | 37 | 244 | 0.0 | 1.7 | 0.00 | 0.00 | 0.00 | 65 | 1018.1 |
| 20260502100502 | 37 | 250 | 0.0 | 1.7 | 0.00 | 0.00 | 0.00 | 65 | 1018.1 |
| 20260502091516 | 38 | 184 | 0.0 | 0.9 | 0.00 | 0.00 | 0.00 | 63 | 1018.2 |
| 20260502091003 | 38 | 246 | 0.0 | 0.9 | 0.00 | 0.00 | 0.00 | 62 | 1018.1 |
| 20260502090504 | 38 | 246 | 0.0 | 1.7 | 0.00 | 0.00 | 0.00 | 62 | 1018.1 |
| 20260502071520 | 40 | 252 | 0.0 | 1.7 | 0.00 | 0.00 | 0.00 | 60 | 1018.5 |
| 20260502071007 | 40 | 233 | 0.0 | 1.7 | 0.00 | 0.00 | 0.00 | 59 | 1018.5 |
| 20260502070507 | 40 | 258 | 0.0 | 0.9 | 0.00 | 0.00 | 0.00 | 60 | 1018.6 |
| 20260502070018 | 40 | 218 | 0.0 | 1.7 | 0.00 | 0.00 | 0.00 | 60 | 1018.6 |
| 20260502065507 | 40 | 245 | 0.0 | 1.7 | 0.00 | 0.00 | 0.00 | 61 | 1018.7 |
| 20260502065007 | 40 | 275 | 0.0 | 1.7 | 0.00 | 0.00 | 0.00 | 60 | 1018.7 |
| 20260502064537 | 40 | 231 | 0.0 | 0.9 | 0.00 | 0.00 | 0.00 | 60 | 1018.7 |
| 20260502064007 | 40 | 283 | 0.0 | 0.0 | 0.00 | 0.00 | 0.00 | 59 | 1018.7 |
| 20260502063507 | 40 | 283 | 0.0 | 0.9 | 0.00 | 0.00 | 0.00 | 59 | 1018.8 |
| 20260502063019 | 40 | 283 | 0.0 | 0.9 | 0.00 | 0.00 | 0.00 | 59 | 1018.7 |
| 20260502062507 | 40 | 283 | 0.0 | 0.0 | 0.00 | 0.00 | 0.00 | 58 | 1018.7 |
| 20260502062009 | 41 | 283 | 0.0 | 0.9 | 0.00 | 0.00 | 0.00 | 58 | 1018.7 |
| 20260502061519 | 41 | 255 | 0.0 | 0.9 | 0.00 | 0.00 | 0.00 | 58 | 1018.7 |
| 20260502061009 | 41 | 248 | 0.0 | 0.9 | 0.00 | 0.00 | 0.00 | 58 | 1018.6 |
| 20260502060507 | 41 | 237 | 0.0 | 0.9 | 0.00 | 0.00 | 0.00 | 58 | 1018.6 |
| 20260502060030 | 41 | 245 | 0.0 | 1.7 | 0.00 | 0.00 | 0.00 | 57 | 1018.6 |
| 20260502055507 | 41 | 246 | 0.0 | 1.7 | 0.00 | 0.00 | 0.00 | 57 | 1018.6 |
| 20260502055007 | 41 | 217 | 0.0 | 0.0 | 0.00 | 0.00 | 0.00 | 57 | 1018.6 |
| 20260502054526 | 41 | 217 | 0.0 | 0.9 | 0.00 | 0.00 | 0.00 | 56 | 1018.6 |
| 20260502054007 | 41 | 217 | 0.0 | 0.9 | 0.00 | 0.00 | 0.00 | 55 | 1018.6 |
| 20260502053513 | 41 | 217 | 0.0 | 0.0 | 0.00 | 0.00 | 0.00 | 55 | 1018.6 |
| 20260502053021 | 41 | 217 | 0.0 | 0.0 | 0.00 | 0.00 | 0.00 | 55 | 1018.6 |
| 20260502052507 | 41 | 217 | 0.0 | 0.0 | 0.00 | 0.00 | 0.00 | 55 | 1018.6 |
| 20260502052007 | 41 | 217 | 0.0 | 0.0 | 0.00 | 0.00 | 0.00 | 55 | 1018.6 |
| 20260502051516 | 42 | 216 | 0.0 | 0.0 | 0.00 | 0.00 | 0.00 | 54 | 1018.6 |
| 20260502051006 | 42 | 217 | 0.0 | 0.0 | 0.00 | 0.00 | 0.00 | 55 | 1018.7 |
| 20260502050508 | 42 | 240 | 0.0 | 0.9 | 0.00 | 0.00 | 0.00 | 55 | 1018.7 |
| 20260502050021 | 42 | 237 | 0.0 | 0.9 | 0.00 | 0.00 | 0.00 | 55 | 1018.7 |
| 20260502045508 | 42 | 224 | 0.0 | 0.9 | 0.00 | 0.00 | 0.00 | 55 | 1018.6 |
| 20260502045003 | 42 | 210 | 0.0 | 0.0 | 0.00 | 0.00 | 0.00 | 55 | 1018.6 |
| 20260502044507 | 42 | 212 | 0.0 | 0.9 | 0.00 | 0.00 | 0.00 | 55 | 1018.6 |
| 20260502044004 | 42 | 235 | 0.0 | 0.9 | 0.00 | 0.00 | 0.00 | 54 | 1018.7 |
| 20260502043504 | 42 | 239 | 0.0 | 0.9 | 0.00 | 0.00 | 0.00 | 54 | 1018.7 |
| 20260502043008 | 42 | 231 | 0.0 | 0.9 | 0.00 | 0.00 | 0.00 | 53 | 1018.7 |
| 20260502042503 | 43 | 248 | 0.0 | 0.9 | 0.00 | 0.00 | 0.00 | 53 | 1018.6 |
| 20260502042004 | 43 | 237 | 0.0 | 0.9 | 0.00 | 0.00 | 0.00 | 53 | 1018.6 |
| 20260502041512 | 43 | 230 | 0.0 | 0.9 | 0.00 | 0.00 | 0.00 | 53 | 1018.6 |
| 20260502041003 | 43 | 242 | 0.0 | 0.9 | 0.00 | 0.00 | 0.00 | 52 | 1018.6 |
| 20260502040506 | 44 | 239 | 0.0 | 0.9 | 0.00 | 0.00 | 0.00 | 52 | 1018.6 |
| 20260502040022 | 44 | 229 | 0.0 | 1.7 | 0.00 | 0.00 | 0.00 | 51 | 1018.6 |
| 20260502035507 | 44 | 221 | 0.0 | 1.7 | 0.00 | 0.00 | 0.00 | 51 | 1018.6 |
| 20260502035006 | 44 | 238 | 0.0 | 1.7 | 0.00 | 0.00 | 0.00 | 51 | 1018.5 |
| 20260502034524 | 44 | 256 | 0.0 | 1.7 | 0.00 | 0.00 | 0.00 | 50 | 1018.6 |
| 20260502034008 | 44 | 233 | 0.0 | 1.7 | 0.00 | 0.00 | 0.00 | 50 | 1018.7 |
| 20260502033504 | 45 | 226 | 0.0 | 0.9 | 0.00 | 0.00 | 0.00 | 51 | 1018.6 |
| 20260502033004 | 45 | 243 | 0.0 | 0.9 | 0.00 | 0.00 | 0.00 | 51 | 1018.6 |
| 20260502032504 | 45 | 247 | 0.0 | 1.7 | 0.00 | 0.00 | 0.00 | 52 | 1018.7 |
| 20260502032008 | 45 | 237 | 0.0 | 1.7 | 0.00 | 0.00 | 0.00 | 52 | 1018.7 |
| 20260502031508 | 45 | 238 | 0.0 | 1.7 | 0.00 | 0.00 | 0.00 | 52 | 1018.7 |
| 20260502031003 | 45 | 244 | 0.0 | 1.7 | 0.00 | 0.00 | 0.00 | 52 | 1018.7 |
| 20260502030504 | 46 | 238 | 0.9 | 1.7 | 0.00 | 0.00 | 0.00 | 53 | 1018.7 |
| 20260502030016 | 46 | 236 | 0.0 | 1.7 | 0.00 | 0.00 | 0.00 | 52 | 1018.7 |
| 20260502025507 | 46 | 241 | 0.0 | 1.7 | 0.00 | 0.00 | 0.00 | 51 | 1018.7 |
| 20260502025006 | 46 | 241 | 0.0 | 1.7 | 0.00 | 0.00 | 0.00 | 52 | 1018.6 |
| 20260502024519 | 46 | 232 | 0.0 | 1.7 | 0.00 | 0.00 | 0.00 | 52 | 1018.6 |
| 20260502024005 | 46 | 231 | 0.0 | 0.9 | 0.00 | 0.00 | 0.00 | 53 | 1018.7 |
| 20260502023506 | 47 | 219 | 0.0 | 0.9 | 0.00 | 0.00 | 0.00 | 52 | 1018.6 |
| 20260502023022 | 47 | 233 | 0.0 | 1.7 | 0.00 | 0.00 | 0.00 | 45 | 1018.7 |
| 20260502022507 | 47 | 230 | 0.0 | 1.7 | 0.00 | 0.00 | 0.00 | 42 | 1018.6 |
| 20260502022004 | 47 | 248 | 0.0 | 1.7 | 0.00 | 0.00 | 0.00 | 43 | 1018.6 |
| 20260502021503 | 47 | 229 | 0.0 | 1.7 | 0.00 | 0.00 | 0.00 | 43 | 1018.6 |
| 20260502021008 | 48 | 236 | 0.0 | 2.6 | 0.00 | 0.00 | 0.00 | 43 | 1018.6 |
| 20260502020509 | 48 | 210 | 0.0 | 2.6 | 0.00 | 0.00 | 0.00 | 46 | 1018.6 |
| 20260502020033 | 48 | 217 | 0.0 | 1.7 | 0.00 | 0.00 | 0.00 | 44 | 1018.5 |
| 20260502015504 | 48 | 276 | 0.0 | 2.6 | 0.00 | 0.00 | 0.00 | 46 | 1018.3 |
| 20260502015004 | 49 | 269 | 0.9 | 2.6 | 0.00 | 0.00 | 0.00 | 44 | 1018.3 |
| 20260502014516 | 49 | 257 | 0.9 | 2.6 | 0.00 | 0.00 | 0.00 | 42 | 1018.2 |
| 20260502014007 | 49 | 258 | 0.9 | 2.6 | 0.00 | 0.00 | 0.00 | 39 | 1018.1 |
| 20260502013507 | 50 | 269 | 0.9 | 2.6 | 0.00 | 0.00 | 0.00 | 40 | 1018.1 |
| 20260502013021 | 50 | 269 | 0.9 | 2.6 | 0.00 | 0.00 | 0.00 | 39 | 1018.1 |
| 20260502012507 | 50 | 293 | 1.7 | 3.5 | 0.00 | 0.00 | 0.00 | 40 | 1018.0 |
| 20260502012009 | 50 | 288 | 1.7 | 4.3 | 0.00 | 0.00 | 0.00 | 40 | 1018.1 |
| 20260502011522 | 51 | 307 | 1.7 | 4.3 | 0.00 | 0.00 | 0.00 | 41 | 1018.0 |
| 20260502011010 | 51 | 292 | 1.7 | 3.5 | 0.00 | 0.00 | 0.00 | 41 | 1018.0 |
| 20260502010508 | 51 | 290 | 0.9 | 5.2 | 0.00 | 0.00 | 0.00 | 42 | 1018.0 |
| 20260502010017 | 51 | 319 | 2.6 | 5.2 | 0.00 | 0.00 | 0.00 | 41 | 1018.0 |
| 20260502005508 | 52 | 321 | 3.5 | 6.1 | 0.00 | 0.00 | 0.00 | 42 | 1017.9 |
| 20260502005004 | 52 | 322 | 2.6 | 9.6 | 0.00 | 0.00 | 0.00 | 46 | 1017.9 |
| 20260502004524 | 52 | 290 | 3.5 | 9.6 | 0.00 | 0.00 | 0.00 | 41 | 1017.9 |
| 20260502004011 | 52 | 288 | 3.5 | 7.0 | 0.00 | 0.00 | 0.00 | 41 | 1017.9 |
| 20260502003507 | 52 | 316 | 2.6 | 6.1 | 0.00 | 0.00 | 0.00 | 40 | 1017.9 |
| 20260502003023 | 52 | 300 | 2.6 | 6.1 | 0.00 | 0.00 | 0.00 | 37 | 1017.8 |
| 20260502002506 | 53 | 319 | 2.6 | 5.2 | 0.00 | 0.00 | 0.00 | 42 | 1017.8 |
| 20260502002007 | 52 | 307 | 2.6 | 5.2 | 0.00 | 0.00 | 0.00 | 41 | 1017.9 |
| 20260502001524 | 52 | 331 | 3.5 | 6.1 | 0.00 | 0.00 | 0.00 | 41 | 1017.9 |
| 20260502001007 | 52 | 360 | 3.5 | 6.1 | 0.00 | 0.00 | 0.00 | 46 | 1017.8 |
| 20260502000507 | 52 | 1 | 2.6 | 6.1 | 0.00 | 0.00 | 0.00 | 40 | 1017.8 |
| 20260502000027 | 52 | 2 | 1.7 | 6.1 | 0.00 | 0.00 | 0.00 | 43 | 1017.8 |
| 20260501235508 | 52 | 333 | 3.5 | 6.1 | 0.00 | 0.00 | 0.00 | 40 | 1017.7 |
| 20260501235010 | 52 | 323 | 2.6 | 8.7 | 0.00 | 0.00 | 0.00 | 39 | 1017.8 |
| 20260501234511 | 53 | 349 | 4.3 | 8.7 | 0.00 | 0.00 | 0.00 | 42 | 1017.8 |
| 20260501234008 | 53 | 321 | 5.2 | 8.7 | 0.00 | 0.00 | 0.00 | 44 | 1017.8 |
| 20260501233507 | 53 | 285 | 3.5 | 8.7 | 0.00 | 0.00 | 0.00 | 38 | 1017.8 |
| 20260501233030 | 53 | 11 | 3.5 | 8.7 | 0.00 | 0.00 | 0.00 | 39 | 1017.8 |
| 20260501232509 | 54 | 288 | 5.2 | 8.7 | 0.00 | 0.00 | 0.00 | 40 | 1017.7 |
| 20260501232011 | 53 | 65 | 0.9 | 6.1 | 0.00 | 0.00 | 0.00 | 34 | 1017.6 |
| 20260501231528 | 53 | 345 | 0.9 | 4.3 | 0.00 | 0.00 | 0.00 | 40 | 1017.7 |
| 20260501231007 | 53 | 360 | 0.0 | 3.5 | 0.00 | 0.00 | 0.00 | 38 | 1017.7 |
| 20260501230509 | 52 | 360 | 1.7 | 5.2 | 0.00 | 0.00 | 0.00 | 40 | 1017.8 |
| 20260501230028 | 52 | 306 | 0.9 | 5.2 | 0.00 | 0.00 | 0.00 | 42 | 1017.9 |
| 20260501225510 | 51 | 331 | 2.6 | 5.2 | 0.00 | 0.00 | 0.00 | 43 | 1017.9 |
| 20260501225013 | 51 | 311 | 3.5 | 7.0 | 0.00 | 0.00 | 0.00 | 42 | 1017.9 |
| 20260501224525 | 51 | 324 | 5.2 | 8.7 | 0.00 | 0.00 | 0.00 | 44 | 1017.9 |
| 20260501224009 | 51 | 353 | 3.5 | 8.7 | 0.00 | 0.00 | 0.00 | 41 | 1017.8 |
| 20260501223503 | 52 | 339 | 4.3 | 7.8 | 0.00 | 0.00 | 0.00 | 46 | 1017.9 |
| 20260501223010 | 53 | 311 | 5.2 | 7.8 | 0.00 | 0.00 | 0.00 | 41 | 1017.8 |
| 20260501222506 | 53 | 316 | 2.6 | 8.7 | 0.00 | 0.00 | 0.00 | 37 | 1017.7 |
| 20260501222006 | 53 | 299 | 2.6 | 8.7 | 0.00 | 0.00 | 0.00 | 39 | 1017.9 |
| 20260501221518 | 53 | 333 | 5.2 | 7.8 | 0.00 | 0.00 | 0.00 | 42 | 1017.8 |
| 20260501221002 | 53 | 347 | 3.5 | 7.8 | 0.00 | 0.00 | 0.00 | 43 | 1017.8 |
| 20260501220509 | 53 | 316 | 3.5 | 7.0 | 0.00 | 0.00 | 0.00 | 43 | 1017.9 |
| 20260501220034 | 52 | 296 | 4.3 | 7.8 | 0.00 | 0.00 | 0.00 | 44 | 1017.9 |
| 20260501215504 | 53 | 333 | 4.3 | 10.4 | 0.00 | 0.00 | 0.00 | 41 | 1017.9 |
| 20260501215003 | 52 | 321 | 6.1 | 10.4 | 0.00 | 0.00 | 0.00 | 46 | 1017.9 |
| 20260501214508 | 53 | 360 | 2.6 | 6.1 | 0.00 | 0.00 | 0.00 | 38 | 1017.8 |
| 20260501214009 | 53 | 300 | 1.7 | 6.1 | 0.00 | 0.00 | 0.00 | 41 | 1017.8 |
| 20260501213503 | 52 | 331 | 2.6 | 6.1 | 0.00 | 0.00 | 0.00 | 42 | 1017.8 |